Weather History for Spirit of St Louis, MO

Change the Weather History Date:

Sunday, March 24, 2013

  Actual Average Record
Temperature  
Mean Temperature 37 °F -  
Max Temperature 41 °F 57 °F 81 °F (2007)
Min Temperature 32 °F 34 °F 19 °F (2014)
Degree Days  
Heating Degree Days 28    
Moisture  
Dew Point 30 °F    
Average Humidity 89    
Maximum Humidity 93    
Minimum Humidity 76    
Precipitation  
Precipitation 0.54 in - - ()
Sea Level Pressure  
Sea Level Pressure 29.71 in    
Wind  
Wind Speed 13 mph (NNW)    
Max Wind Speed 22 mph    
Max Gust Speed 32 mph    
Visibility 2 miles    
Events Fog , Rain , Snow , Thunderstorm    
Averages and records for this station are not official NWS values.
T = Trace of Precipitation, MM = Missing Value Source: NWS Daily Summary

Daily Weather History Graph

Daily Weather History Graph

Search for Another Location

Airport:

Trip Planner

Search our weather history database for the weather conditions in past years. The results will help you decide how hot, cold, wet, or windy it might be!

Date:

Astronomy

Mar. 24, 2013 Rise Set
Actual Time 6:59 AM CDT 7:18 PM CDT
Civil Twilight 6:32 AM CDT 7:45 PM CDT
Nautical Twilight 6:01 AM CDT 8:16 PM CDT
Astronomical Twilight 5:30 AM CDT 8:48 PM CDT
Moon 4:48 PM CDT (3/24) 5:08 AM CDT (3/24)
Length of Visible Light 13h 12m
Length of Day
12h 19m
Waxing Gibbous, 92% of the Moon is Illuminated
Mar 24
Waxing Gibbous
Mar 27
Full
Apr 2
Last Quarter
Apr 10
New
Apr 18
First Quarter

Hourly Weather History & Observations

Time (CDT) Temp. Windchill Dew Point Humidity Pressure Visibility Wind Dir Wind Speed Gust Speed Precip Events Conditions
12:27 AM 42.8 °F 36.2 °F 35.6 °F 76% 29.85 in 8.0 mi ENE 12.7 mph - 0.01 in Rain Light Rain
12:54 AM 41.0 °F 36.4 °F 35.1 °F 79% 29.88 in 7.0 mi NNE 6.9 mph - 0.01 in Rain Light Rain
1:54 AM 37.9 °F 28.2 °F 34.0 °F 86% 29.86 in 4.0 mi NE 18.4 mph 25.3 mph 0.04 in Rain Light Rain
2:12 AM 37.4 °F 27.8 °F 33.8 °F 87% 29.81 in 4.0 mi ENE 17.3 mph 24.2 mph N/A Rain Light Rain
2:32 AM 35.6 °F 27.1 °F 33.8 °F 93% 29.80 in 5.0 mi NE 12.7 mph - 0.01 in Rain Light Rain
2:54 AM 36.0 °F 27.5 °F 33.1 °F 89% 29.80 in 6.0 mi NE 12.7 mph - 0.02 in   Overcast
3:54 AM 35.1 °F 25.5 °F 30.9 °F 85% 29.81 in 8.0 mi NE 15.0 mph - N/A   Overcast
4:54 AM 34.0 °F 26.0 °F 32.0 °F 92% 29.75 in 3.0 mi NE 10.4 mph 19.6 mph 0.00 in   Overcast
5:39 AM 33.8 °F 23.9 °F 30.2 °F 87% 29.71 in 2.5 mi ENE 15.0 mph - 0.00 in Snow Light Snow
5:46 AM 33.8 °F 24.3 °F 30.2 °F 87% 29.71 in 3.0 mi ENE 13.8 mph - 0.00 in Snow Light Snow
5:54 AM 33.1 °F 22.6 °F 30.9 °F 92% 29.73 in 4.0 mi ENE 16.1 mph - 0.00 in   Overcast
6:49 AM 33.8 °F 24.8 °F 30.2 °F 87% 29.68 in 2.0 mi ENE 12.7 mph - 0.00 in Snow Light Snow
6:54 AM 33.1 °F 23.4 °F 30.0 °F 89% 29.68 in 2.0 mi ENE 13.8 mph - 0.00 in Snow Light Snow
7:12 AM 33.8 °F 23.9 °F 30.2 °F 87% 29.65 in 3.0 mi ENE 15.0 mph - 0.01 in Snow Light Snow
7:46 AM 33.8 °F 24.3 °F 30.2 °F 87% 29.62 in 1.8 mi NE 13.8 mph - 0.02 in Snow Light Snow
7:54 AM 33.1 °F 24.4 °F 30.9 °F 92% 29.64 in 1.5 mi NE 11.5 mph - 0.02 in Snow Light Snow
8:54 AM 33.1 °F 26.1 °F 30.9 °F 92% 29.66 in 0.5 mi NNW 8.1 mph - 0.06 in Fog , Snow Snow
9:00 AM 33.8 °F 26.4 °F 30.2 °F 87% 29.66 in 0.2 mi NW 9.2 mph - 0.02 in Fog , Snow Snow
9:24 AM 33.8 °F 27.0 °F 30.2 °F 87% 29.65 in 0.2 mi North 8.1 mph - 0.07 in Fog , Snow , Thunderstorm Thunderstorms and Snow
9:54 AM 33.1 °F 26.1 °F 30.9 °F 92% 29.66 in 0.2 mi North 8.1 mph - 0.11 in Fog , Snow Snow
10:32 AM 32.0 °F 23.0 °F 30.2 °F 93% 29.63 in 0.2 mi North 11.5 mph - 0.06 in Fog , Snow Heavy Snow
10:52 AM 32.0 °F 23.6 °F 30.2 °F 93% 29.62 in 0.2 mi North 10.4 mph - 0.09 in Fog , Snow Snow
10:54 AM 32.0 °F 23.0 °F 30.0 °F 92% 29.63 in 0.2 mi North 11.5 mph - 0.09 in Fog , Snow Snow
11:26 AM 32.0 °F 25.6 °F 30.2 °F 93% 29.61 in 0.5 mi North 6.9 mph - 0.02 in Fog , Snow Snow
11:40 AM 32.0 °F 24.2 °F 30.2 °F 93% 29.60 in 0.2 mi North 9.2 mph - 0.03 in Fog , Snow Snow
11:54 AM 32.0 °F 25.6 °F 30.0 °F 92% 29.62 in 0.2 mi North 6.9 mph 16.1 mph 0.04 in Fog , Snow Heavy Snow
12:01 PM 32.0 °F 24.2 °F 30.2 °F 93% 29.60 in 0.2 mi North 9.2 mph - 0.01 in Fog , Snow Snow
12:09 PM 32.0 °F 26.4 °F 30.2 °F 93% 29.60 in 0.2 mi North 5.8 mph - 0.02 in Fog , Snow Snow
12:24 PM 32.0 °F 24.8 °F 28.4 °F 87% 29.60 in 0.5 mi North 8.1 mph - 0.03 in Fog , Snow Snow
12:54 PM 32.0 °F 25.6 °F 30.0 °F 92% 29.62 in 0.5 mi North 6.9 mph - 0.05 in Fog , Snow Snow
1:01 PM 32.0 °F 24.8 °F 30.2 °F 93% 29.59 in 0.2 mi North 8.1 mph - 0.00 in Fog , Snow Snow
1:18 PM 32.0 °F 24.2 °F 30.2 °F 93% 29.59 in 0.5 mi NNW 9.2 mph - 0.01 in Fog , Snow Snow
1:54 PM 32.0 °F 20.8 °F 30.0 °F 92% 29.61 in 0.2 mi NNW 17.3 mph 23.0 mph 0.01 in Fog , Snow Snow
2:04 PM 32.0 °F 22.1 °F 30.2 °F 93% 29.59 in 0.2 mi NNW 13.8 mph - 0.00 in Fog , Snow Snow
2:54 PM 32.0 °F 22.5 °F 28.9 °F 88% 29.63 in 0.2 mi NNW 12.7 mph - 0.02 in Fog , Snow Heavy Snow
3:13 PM 32.0 °F 20.8 °F 28.4 °F 87% 29.62 in 0.2 mi NNW 17.3 mph - 0.00 in Fog , Snow Heavy Snow
3:44 PM 32.0 °F 21.2 °F 30.2 °F 93% 29.63 in 0.2 mi NNW 16.1 mph - 0.01 in Fog , Snow Snow
3:54 PM 32.0 °F 20.8 °F 28.9 °F 88% 29.65 in 0.2 mi NW 17.3 mph 23.0 mph 0.01 in Fog , Snow Snow
4:26 PM 32.0 °F 20.8 °F 28.4 °F 87% 29.65 in 0.5 mi NW 17.3 mph 27.6 mph 0.01 in Fog , Snow Snow
4:54 PM 32.0 °F 19.8 °F 28.9 °F 88% 29.69 in 0.5 mi NW 20.7 mph 27.6 mph 0.01 in Fog , Snow Snow
5:23 PM 32.0 °F 20.5 °F 28.4 °F 87% 29.69 in 0.5 mi WNW 18.4 mph 26.5 mph 0.01 in Fog , Snow Snow
5:38 PM 32.0 °F 19.5 °F 28.4 °F 87% 29.69 in 0.5 mi WNW 21.9 mph 29.9 mph 0.01 in Fog , Snow Snow
5:54 PM 32.0 °F 20.1 °F 28.9 °F 88% 29.73 in 0.5 mi WNW 19.6 mph 25.3 mph 0.01 in Fog , Snow Snow
6:02 PM 32.0 °F 20.5 °F 28.4 °F 87% 29.71 in 0.5 mi WNW 18.4 mph 25.3 mph 0.00 in Fog , Snow Snow
6:54 PM 32.0 °F 20.5 °F 28.9 °F 88% 29.76 in 0.5 mi WNW 18.4 mph 24.2 mph 0.01 in Fog , Snow Light Snow
7:27 PM 32.0 °F 20.5 °F 28.4 °F 87% 29.75 in 1.0 mi WNW 18.4 mph 26.5 mph 0.00 in Snow Light Snow
7:35 PM 32.0 °F 20.1 °F 28.4 °F 87% 29.75 in 1.2 mi WNW 19.6 mph 32.2 mph 0.01 in Snow Light Snow
7:44 PM 32.0 °F 20.1 °F 28.4 °F 87% 29.76 in 1.2 mi WNW 19.6 mph 28.8 mph 0.01 in Snow Light Snow
7:54 PM 32.0 °F 20.8 °F 28.0 °F 85% 29.79 in 1.2 mi WNW 17.3 mph 25.3 mph 0.01 in Snow Light Snow
8:00 PM 32.0 °F 20.5 °F 28.4 °F 87% 29.77 in 1.5 mi WNW 18.4 mph - 0.00 in Snow Light Snow
8:52 PM 32.0 °F 20.8 °F 28.4 °F 87% 29.79 in 1.5 mi WNW 17.3 mph 26.5 mph 0.00 in Snow Light Snow
8:54 PM 32.0 °F 20.8 °F 28.0 °F 85% 29.82 in 1.5 mi WNW 17.3 mph 26.5 mph 0.00 in Snow Light Snow
9:12 PM 32.0 °F 21.2 °F 28.4 °F 87% 29.80 in 1.2 mi WNW 16.1 mph 27.6 mph 0.00 in Snow Light Snow
9:54 PM 32.0 °F 21.2 °F 28.0 °F 85% 29.84 in 1.5 mi WNW 16.1 mph - 0.00 in Snow Light Snow
10:22 PM 32.0 °F 21.6 °F 28.4 °F 87% 29.82 in 1.2 mi WNW 15.0 mph 25.3 mph 0.01 in Snow Light Snow
10:49 PM 32.0 °F 20.8 °F 28.4 °F 87% 29.83 in 1.2 mi WNW 17.3 mph 23.0 mph 0.01 in Snow Light Snow
10:54 PM 32.0 °F 22.5 °F 28.9 °F 88% 29.86 in 1.2 mi WNW 12.7 mph 23.0 mph 0.01 in Snow Light Snow
11:03 PM 32.0 °F 20.5 °F 28.4 °F 87% 29.84 in 1.2 mi WNW 18.4 mph 24.2 mph 0.00 in Snow Light Snow
11:14 PM 32.0 °F 22.1 °F 28.4 °F 87% 29.84 in 1.2 mi WNW 13.8 mph - 0.00 in Snow Light Snow
11:54 PM 32.0 °F 21.6 °F 28.0 °F 85% 29.87 in 1.2 mi WNW 15.0 mph - 0.01 in Snow Light Snow